Printer-friendly version

IAU Minor Planet Center

Minor Planet Center

MPEC 2007-U42 : 2007 UV3

The following Minor Planet Electronic Circular may be linked-to from your own Web pages, but must not otherwise be redistributed electronically.


Read MPEC 2007-U41 Read MPEC 2007-U43


M.P.E.C. 2007-U42                                Issued 2007 Oct. 20, 15:36 UT

     The Minor Planet Electronic Circulars contain information on unusual
         minor planets and routine data on comets.  They are published
   on behalf of Commission 20 of the International Astronomical Union by the
          Minor Planet Center, Smithsonian Astrophysical Observatory,
                          Cambridge, MA 02138, U.S.A.

             Prepared using the Tamkin Foundation Computer Network

                              MPC@CFA.HARVARD.EDU
          URL http://www.cfa.harvard.edu/iau/mpc.html  ISSN 1523-6714

                                   2007 UV3

Observations:
     K07U03V* C2007 10 19.31207 03 57 26.06 +02 25 49.5          19.3   EU042704
     K07U03V  C2007 10 19.32274 03 57 25.60 +02 25 00.3          19.5   EU042704
     K07U03V  C2007 10 19.33340 03 57 25.11 +02 24 10.4          20.0   EU042704
     K07U03V  C2007 10 19.34408 03 57 24.61 +02 23 21.2          19.7   EU042704
     K07U03V  C2007 10 20.36192 03 56 42.28 +01 01 16.7          18.4 V EU042703
     K07U03V  C2007 10 20.37396 03 56 41.67 +01 00 16.8          18.6 V EU042703
     K07U03V  C2007 10 20.37996 03 56 41.31 +00 59 45.8          18.1 V EU042703
     K07U03V  C2007 10 20.42011 03 56 38.98 +00 56 23.8          18.7 R EU042734
     K07U03V  C2007 10 20.42259 03 56 38.86 +00 56 09.6          18.9 R EU042734
     K07U03V  C2007 10 20.42506 03 56 38.59 +00 55 56.7          18.3 R EU042734
     K07U03V  C2007 10 20.42752 03 56 38.65 +00 55 47.9          18.8 R EU042734

Observer details:
703 Catalina Sky Survey.  Observer R. A. Kowalski.  Measurers E. C. Beshore,
    A. Boattini, G. J. Garradd, A. R. Gibbs, A. D. Grauer, R. E. Hill,
    R. A. Kowalski, S. M. Larson, R. H. McNaught.  0.68-m Schmidt + CCD.
704 Lincoln Laboratory ETS, New Mexico.  Observers M. Bezpalko, D. Torres,
    R. Kracke, G. Spitz, J. Kistler.  Measurers J. Stuart, S. Scruggs.  1.0-m
    f/2.15 reflector + CCD.
734 Farpoint Observatory.  Observer D. Tibbets.  Measurer G. Hug.  0.7-m
    reflector + CCD.

Orbital elements:
2007 UV3                                                 Earth MOID = 0.2292 AU
Epoch 2007 Oct. 27.0 TT = JDT 2454400.5                 MPC
M 315.26161              (2000.0)            P               Q
n   0.66392002     Peri.  331.01187     -0.95956886     -0.10941967
a   1.3013443      Node   206.82588     +0.07333562     -0.98671479
e   0.7602412      Incl.   35.07623     -0.27175262     +0.12008852
P   1.48           H   18.9           G   0.15           U   9
Residuals in seconds of arc
071019 704  0.2+  0.7-    071020 703  0.4+  0.2-    071020 734  0.7+  1.2-
071019 704  0.5+  0.1-    071020 703  0.7+  0.2+    071020 734  1.4-  1.6-
071019 704  0.4+  0.2-    071020 703  0.0   0.8-    071020 734  1.4+  1.9+
071019 704  0.2+  0.5+    071020 734  0.6+  0.6+

Ephemeris:
2007 UV3                 a,e,i = 1.30, 0.76, 35                  q = 0.3120
Date    TT    R. A. (2000) Decl.     Delta      r     Elong.  Phase     V
2007 10 17    03 58.65   +05 13.0    0.455    1.384   141.9    26.4    19.1
2007 10 22    03 55.33   -01 22.7    0.384    1.329   145.2    25.3    18.6
2007 10 27    03 48.94   -10 33.4    0.322    1.272   145.1    26.6    18.2
2007 11 01    03 37.69   -23 07.9    0.274    1.212   138.4    32.9    17.9
2007 11 06    03 17.71   -39 06.5    0.246    1.149   124.5    45.3    17.9
2007 11 11    02 39.27   -56 18.6    0.242    1.083   106.3    61.3    18.2
2007 11 16    01 13.70   -70 30.1    0.261    1.015    88.1    77.0    18.7
2007 11 21    22 13.98   -76 32.6    0.296    0.943    72.6    90.0    19.3
2007 11 26    19 35.38   -73 22.1    0.342    0.867    59.8   100.2    19.9

Timothy B. Spahr             (C) Copyright 2007 MPC           M.P.E.C. 2007-U42

Read MPEC 2007-U41 Read MPEC 2007-U43


Our Web policy. Index to the CBAT/MPC/ICQ pages.


Valid HTML 4.01!